EW3598 Weather Reports


time (UTC)temp
F
wind
direction
speed
knots
gust
knots
rain 1hr
in
rain 24hr
in
rain mn
in
humidity
%
barometer
mb
20260903024532 0 186 0.0 0.0 0.00 0.00 0.00 1015.6
20260903023028 0 187 0.0 0.0 0.00 0.00 0.00 1015.7
20260903021554 0 186 0.0 0.0 0.00 0.00 0.00 1015.7
20260903020054 0 186 0.0 0.0 0.00 0.00 0.00 1015.5
20260903014542 0 186 0.0 0.0 0.00 0.00 0.00 1015.6
20260903013047 0 187 0.0 0.0 0.00 0.00 0.00 1015.5
20260903011534 0 186 0.0 0.0 0.00 0.00 0.00 1015.4
20260903010032 0 186 0.0 0.0 0.00 0.00 0.00 1015.2
20260903004602 0 186 0.0 0.0 0.00 0.00 0.00 1015.1
20260903003054 0 186 0.0 0.0 0.00 0.00 0.00 1015.1
20260903001545 0 186 0.0 0.0 0.00 0.00 0.00 1015.0
20260903000044 0 186 0.0 0.9 0.00 0.00 0.00 1015.0
20260902234536 0 200 0.0 1.7 0.00 0.00 0.00 1015.0
20260902233032 0 200 0.0 2.6 0.00 0.00 0.00 1015.0
20260902231526 0 230 0.0 5.2 0.00 0.00 0.00 1014.9
20260902230024 0 198 0.9 4.3 0.00 0.00 0.00 1015.0
20260902224521 0 195 0.9 5.2 0.00 0.00 0.00 1015.1
20260902223030 0 230 0.9 3.5 0.00 0.00 0.00 1015.0
20260902221509 0 196 0.9 7.0 0.00 0.00 0.00 1015.1
20260902220005 0 196 0.9 4.3 0.00 0.00 0.00 1015.1
20260902214501 0 215 1.7 7.0 0.00 0.00 0.00 1015.2
20260902213059 0 193 0.0 4.3 0.00 0.00 0.00 1015.3
20260902211524 0 330 0.9 5.2 0.00 0.00 0.00 1015.4
20260902210020 0 228 0.9 5.2 0.00 0.00 0.00 1015.5
20260902204528 0 215 1.7 6.1 0.00 0.00 0.00 1015.5
20260902203012 0 186 0.9 4.3 0.00 0.00 0.00 1015.7
20260902201510 0 225 1.7 5.2 0.00 0.00 0.00 1015.8
20260902200011 0 96 1.7 5.2 0.00 0.00 0.00 1015.9
20260902194539 0 345 0.9 7.8 0.00 0.00 0.00 1016.1
20260902193036 0 259 0.9 4.3 0.00 0.00 0.00 1016.2
20260902191530 0 189 1.7 8.7 0.00 0.00 0.00 1016.3
20260902190027 0 198 1.7 6.1 0.00 0.00 0.00 1016.5
20260902184529 0 193 0.0 4.3 0.00 0.00 0.00 1016.6
20260902183035 0 321 0.9 4.3 0.00 0.00 0.00 1016.8
20260902181510 0 207 0.0 3.5 0.00 0.00 0.00 1016.8
20260902180007 0 242 3.5 7.0 0.00 0.00 0.00 1016.9
20260902174602 0 213 1.7 7.0 0.00 0.00 0.00 1017.0
20260902173114 0 169 3.5 8.7 0.00 0.00 0.00 1017.3
20260902171551 0 184 1.7 7.8 0.00 0.00 0.00 1017.5
20260902170049 0 248 0.9 7.0 0.00 0.00 0.00 1017.5
20260902164543 0 179 1.7 5.2 0.00 0.00 0.00 1017.5
20260902163042 0 229 1.7 6.1 0.00 0.00 0.00 1017.6
20260902161531 0 264 0.0 4.3 0.00 0.00 0.00 1017.7
20260902160024 0 190 0.9 5.2 0.00 0.00 0.00 1017.7
20260902154519 0 227 0.9 4.3 0.00 0.00 0.00 1017.8
20260902153015 0 178 0.9 7.0 0.00 0.00 0.00 1017.8
20260902151511 0 223 1.7 3.5 0.00 0.00 0.00 1017.9
20260902150006 0 175 0.9 4.3 0.00 0.00 0.00 1017.9
20260902144600 0 181 0.9 3.5 0.00 0.00 0.00 1017.9
20260902143057 0 184 0.0 2.6 0.00 0.00 0.00 1017.9
20260902141551 0 190 0.0 3.5 0.00 0.00 0.00 1017.9
20260902140045 0 182 0.9 3.5 0.00 0.00 0.00 1017.9
20260902134540 0 183 0.0 0.0 0.00 0.00 0.00 1017.8
20260902133035 0 183 0.0 1.7 0.00 0.00 0.00 1017.9
20260902131530 0 183 0.0 0.9 0.00 0.00 0.00 1018.0
20260902130024 0 183 0.0 1.7 0.00 0.00 0.00 1018.0
20260902124519 0 225 0.0 0.9 0.00 0.00 0.00 1017.9
20260902123015 0 227 0.0 0.0 0.00 0.00 0.00 1017.8
20260902121510 0 226 0.0 0.0 0.00 0.00 0.00 1017.7
20260902120004 0 226 0.0 0.0 0.00 0.00 0.00 1017.6
20260902114600 0 226 0.0 0.0 0.00 0.00 0.00 1017.5
20260902113056 0 226 0.0 0.0 0.00 0.00 0.00 1017.3
20260902111555 0 226 0.0 0.0 0.00 0.00 0.00 1017.2
20260902110050 0 226 0.0 0.0 0.00 0.00 0.00 1017.1
20260902104554 0 226 0.0 0.0 0.00 0.00 0.00 1017.1
20260902103052 0 226 0.0 0.0 0.00 0.00 0.00 1017.0
20260902101531 0 226 0.0 0.0 0.00 0.00 0.00 1017.1
20260902100057 0 226 0.0 0.0 0.00 0.00 0.00 1017.1
20260902094553 0 226 0.0 0.0 0.00 0.00 0.00 1017.2
20260902093046 0 226 0.0 0.9 0.00 0.00 0.00 1017.1
20260902091542 0 226 0.0 0.9 0.00 0.00 0.00 1016.9
20260902090040 0 226 0.0 0.0 0.00 0.00 0.00 1016.8
20260902084539 0 226 0.0 0.0 0.00 0.00 0.00 1016.8
20260902083022 0 226 0.0 0.0 0.00 0.00 0.00 1016.6
20260902081519 0 226 0.0 0.0 0.00 0.00 0.00 1016.6
20260902080020 0 226 0.0 0.0 0.00 0.00 0.00 1016.5
20260902074509 0 226 0.0 0.9 0.00 0.00 0.00 1016.3
20260902073004 0 226 0.0 0.0 0.00 0.00 0.00 1016.2
20260902071600 0 226 0.0 0.0 0.00 0.00 0.00 1016.2
20260902070053 0 226 0.0 0.0 0.00 0.00 0.00 1016.4
20260902064552 0 226 0.0 0.0 0.00 0.00 0.00 1016.4
20260902063055 0 226 0.0 0.0 0.00 0.00 0.00 1016.4
20260902061559 0 226 0.0 0.0 0.00 0.00 0.00 1016.5
20260902060041 0 226 0.0 0.0 0.00 0.00 0.00 1016.5
20260902054534 0 226 0.0 0.0 0.00 0.00 0.00 1016.6
20260902053029 0 226 0.0 0.0 0.00 0.00 0.00 1016.5
20260902051520 0 226 0.0 0.0 0.00 0.00 0.00 1016.4
20260902050021 0 227 0.0 0.0 0.00 0.00 0.00 1016.4
20260902044509 0 227 0.0 0.0 0.00 0.00 0.00 1016.5
20260902043006 0 226 0.0 0.0 0.00 0.00 0.00 1016.4
20260902041604 0 225 0.0 0.0 0.00 0.00 0.00 1016.6
20260902040057 0 225 0.0 0.0 0.00 0.00 0.00 1016.6
20260902034551 0 226 0.0 0.0 0.00 0.00 0.00 1016.4
20260902033045 0 226 0.0 0.0 0.00 0.00 0.00 1016.4
20260902031554 0 226 0.0 0.0 0.00 0.00 0.00 1016.5
20260902030036 0 226 0.0 0.0 0.00 0.00 0.00 1016.5